RH
100 95 91 84 80 69 98 100 100 70 59 61 59 57 60 41 23 18 20 23 26 29 15 11 13 14 16 18 21 22 23 24 26 28 28 30 28 29 35 37 34 36 37 34 36 38 38
64 64 100 100 66 88 100 100 85 80 98 87 77 53 26 18 12 12 13 18 27 13 11 12 13 14 15 17 17 18 21 23 27 29 31 31 31 34 37 40 38 34 37 41 43 43 43
77 80 83 100 100 82 65 81 100 82 53 47 38 24 20 16 14 14 19 19 15 11 12 13 14 14 14 16 18 19 22 24 27 30 34 32 35 28 27 31 32 41 45 46 47 51 51
73 79 76 82 99 99 100 80 73 59 36 28 25 22 19 17 14 16 15 14 12 12 13 12 15 16 15 16 16 17 19 21 24 26 30 38 39 44 46 48 52 54 57 65 64 66 68
19 26 40 52 66 82 72 76 60 28 24 23 18 18 19 15 16 15 13 15 14 14 14 13 15 16 15 15 18 19 22 26 27 31 32 34 39 39 41 48 53 54 61 65 73 66 82
15 15 16 21 36 56 55 50 20 20 23 19 18 20 22 22 19 18 20 19 17 18 15 15 14 16 16 17 18 19 24 30 26 26 33 35 39 44 46 48 59 63 56 61 81 60 78
14 13 13 13 24 38 39 17 14 15 23 21 24 34 36 48 46 45 42 40 39 25 22 25 22 20 23 24 24 26 25 31 33 38 38 39 44 53 60 60 64 64 60 54 73 64 77
20 14 13 12 12 12 14 15 14 15 20 25 32 33 36 42 44 51 50 54 46 64 55 42 33 32 39 33 36 39 37 37 36 40 49 54 59 64 66 71 76 74 65 53 55 62 57
27 20 13 14 14 15 16 17 17 19 21 26 27 32 33 39 43 44 44 50 52 52 53 52 44 49 39 47 54 57 58 56 72 88 99 99 92 83 80 82 89 81 65 58 55 62 56
47 23 17 14 17 18 20 25 25 28 28 31 34 49 52 50 72 76 56 47 43 46 42 44 61 57 53 61 67 72 83 99 100 92 88 94 85 95 100 100 100 98 64 63 64 56 48
40 49 23 18 18 18 21 26 31 39 46 57 74 79 66 62 100 100 94 100 99 79 52 91 94 100 99 98 99 100 100 98 100 100 100 100 100 100 100 100 73 76 69 77 73 68 51
51 61 44 23 17 24 22 28 37 36 37 45 48 49 61 74 64 75 75 65 74 83 96 96 84 80 84 90 98 100 100 100 100 100 99 100 100 100 92 78 73 75 91 84 68 80 59
52 69 82 40 22 20 26 30 40 52 44 41 46 40 46 41 42 49 57 58 59 63 69 80 92 100 100 94 78 73 77 78 75 69 71 70 71 68 68 66 75 78 66 63 42 60 64
98 50 72 88 39 20 20 25 39 60 54 36 38 40 39 38 40 47 47 52 56 65 75 69 96 72 69 78 73 72 72 72 64 62 58 62 72 77 80 74 74 78 72 76 69 68 55
100 98 79 100 100 43 24 22 25 39 37 39 40 41 41 43 40 50 49 52 63 81 98 81 74 100 100 100 92 90 86 81 66 62 68 69 62 74 79 76 66 56 54 59 55 45 46
83 100 100 100 100 100 50 29 29 27 37 40 37 38 40 42 39 43 43 46 69 97 100 100 100 100 96 74 67 68 69 68 74 85 82 71 56 59 56 59 55 57 46 48 49 48 54
63 72 100 100 87 100 100 67 40 37 37 37 36 37 32 38 40 44 49 58 83 94 93 88 88 75 66 78 87 72 66 75 78 84 79 69 58 54 53 62 55 41 48 62 76 85 76
76 99 96 79 83 78 100 100 98 52 49 51 55 57 56 53 59 63 80 99 100 100 96 79 84 81 88 83 61 52 60 66 64 74 80 73 53 55 58 53 44 45 67 94 100 100 92
100 100 100 100 88 89 87 100 100 100 100 100 100 100 100 100 100 100 100 100 100 100 98 100 94 87 76 71 54 60 53 82 76 72 60 45 38 56 48 52 48 65 89 100 100 100 100
100 100 100 100 76 100 94 71 100 100 100 100 100 100 100 100 100 100 100 100 100 100 100 100 100 94 84 39 34 37 38 40 64 67 52 41 42 70 68 71 65 80 99 100 100 100 78
100 100 100 100 98 92 100 76 56 95 100 100 100 100 100 100 100 100 100 100 100 100 100 100 100 98 83 29 30 26 26 52 43 55 46 49 71 66 65 65 74 94 100 100 88 93 74
100 100 100 100 100 99 87 100 83 74 60 90 100 100 100 100 100 98 100 100 100 100 100 97 71 47 44 31 36 36 53 32 34 44 51 63 64 61 65 90 100 91 100 100 100 100 69
100 100 100 100 100 100 100 76 69 76 83 69 87 98 82 76 66 63 75 78 77 74 68 63 52 46 41 37 42 52 50 42 45 59 65 72 58 61 78 75 66 82 100 100 100 99 76
100 100 100 100 100 100 100 98 100 100 100 100 100 99 78 78 88 73 64 68 76 72 67 66 68 58 44 40 39 33 36 44 54 74 75 69 59 53 43 46 48 58 100 99 86 76 87
100 100 100 100 100 100 100 100 97 100 100 100 100 100 88 79 87 77 95 85 69 73 54 54 46 38 36 38 36 28 38 37 47 58 66 59 64 56 50 60 50 69 95 89 96 99 86
100 100 100 100 100 100 100 100 100 100 100 100 100 100 100 100 94 72 69 82 70 90 51 52 46 36 32 30 29 29 51 52 44 40 50 50 47 51 60 55 50 67 87 86 93 73 66
100 100 100 100 100 100 100 100 100 100 100 100 100 100 100 100 100 100 100 100 100 97 90 76 55 38 30 34 34 48 50 42 38 33 37 44 60 72 76 78 68 70 70 62 53 48 45
70 100 100 100 100 100 100 100 100 100 100 100 100 100 100 100 100 100 100 100 100 100 100 100 100 100 100 100 100 86 93 100 95 71 72 72 76 80 88 79 67 63 70 60 59 52 55
54 52 100 100 100 100 100 100 100 100 100 100 100 100 100 100 100 100 100 100 100 100 100 100 100 100 100 100 100 100 100 100 100 94 90 90 100 92 80 72 78 65 64 62 60 59 77
Wind_Speed
25 26 29 31 34 30 23 24 25 26 28 29 29 28 31 36 29 22 19 18 14 19 23 24 22 21 21 20 19 15 15 15 14 13 13 15 20 19 17 19 20 20 21 20 20 19 19
21 24 24 26 23 24 25 29 28 29 26 29 29 29 20 19 20 15 16 14 21 23 24 25 22 19 17 15 13 13 12 11 11 10 10 9 9 6 9 11 15 18 21 20 20 20 19
24 24 27 29 26 27 26 26 26 27 32 30 20 17 15 8 7 10 15 19 24 22 20 21 19 17 15 15 14 11 8 9 8 9 9 8 11 14 14 10 15 21 22 24 25 27 25
27 30 30 30 33 29 25 28 30 31 21 19 20 17 13 12 13 18 19 20 21 21 19 19 18 14 12 10 8 7 3 1 3 6 7 9 11 12 13 15 17 21 25 27 28 30 29
20 24 29 34 34 35 29 27 30 21 20 22 19 19 15 14 12 13 21 19 20 13 15 18 16 10 7 5 2 0 3 5 6 8 9 11 13 17 20 23 25 28 29 32 34 33 32
23 22 23 24 32 32 29 25 21 22 24 27 23 20 17 17 16 18 16 13 13 10 11 12 11 8 6 5 5 7 9 9 11 12 14 16 17 19 24 29 29 31 33 34 34 37 39
24 24 20 16 18 24 24 22 22 24 25 29 26 23 20 16 15 15 13 11 9 8 8 8 8 9 9 9 10 12 14 17 18 19 20 23 27 30 32 34 34 36 36 36 37 39 43
26 25 22 17 18 20 23 24 24 25 30 31 27 24 21 18 18 15 14 14 14 14 15 15 15 15 14 14 15 17 18 21 23 27 26 27 30 32 35 37 38 41 42 39 41 44 45
34 27 28 24 23 26 29 28 28 28 33 32 28 25 22 19 16 16 16 17 18 17 18 21 23 25 25 25 24 25 24 26 28 33 37 37 39 39 39 40 42 45 48 47 47 48 49
37 33 30 33 32 34 34 32 32 31 32 32 29 28 26 22 20 19 22 22 23 23 25 25 26 29 29 30 32 34 35 37 37 37 38 40 43 46 47 46 46 50 52 54 53 51 50
42 40 36 37 41 42 42 38 37 36 35 35 32 27 28 25 22 21 17 21 20 19 24 24 27 27 27 29 30 30 33 37 41 42 44 48 49 49 49 48 52 54 55 55 56 57 56
45 44 43 39 46 48 48 46 43 41 40 38 37 34 31 29 27 23 23 21 20 24 25 26 29 30 33 35 37 39 41 42 43 44 43 43 44 45 49 54 54 54 56 59 59 60 59
51 48 47 47 45 56 52 52 50 47 43 42 41 37 37 34 32 29 29 30 32 32 33 31 34 34 35 36 38 40 41 42 43 43 44 46 49 50 51 54 57 59 61 65 66 66 66
56 56 54 52 51 52 61 58 57 53 49 46 45 42 40 40 38 37 37 37 38 39 38 37 37 38 42 39 39 40 42 46 44 45 47 48 51 56 58 60 61 65 68 72 71 70 70
66 62 60 57 57 54 57 63 62 59 56 53 51 48 46 45 45 44 44 44 45 47 44 40 40 44 41 42 44 48 49 50 52 51 49 50 51 56 60 63 66 67 71 72 72 73 73
76 72 66 64 61 61 60 60 65 65 62 61 58 55 54 52 51 51 51 52 52 50 45 43 45 46 47 52 53 51 50 54 54 54 54 56 57 59 63 67 69 70 73 73 76 78 80
82 79 80 72 68 65 64 66 65 66 67 66 65 65 63 60 58 57 58 59 57 56 54 57 56 55 57 54 53 54 54 55 56 58 60 62 63 64 66 67 70 74 74 75 77 83 87
80 80 80 83 77 70 68 71 73 73 71 69 68 65 66 65 65 65 65 65 65 64 62 57 56 54 55 57 58 59 58 61 59 61 63 66 68 67 68 71 74 74 75 76 80 83 88
86 86 86 81 82 76 73 77 77 78 77 74 72 69 69 66 61 62 63 64 64 64 63 60 59 60 61 63 63 61 61 60 62 66 68 69 70 72 73 76 77 74 75 76 82 88 92
89 89 93 90 88 79 78 85 82 78 78 77 74 72 71 71 66 65 66 66 66 67 67 66 66 67 67 65 66 66 67 68 69 72 74 75 75 76 78 80 79 76 77 82 87 91 95
98 94 94 97 98 90 83 88 92 89 81 77 74 74 74 73 70 70 69 69 72 72 72 72 74 76 74 71 70 71 72 74 74 75 76 77 77 80 80 84 80 79 82 92 94 97 102
116 104 104 103 103 101 99 94 93 91 91 81 78 78 78 76 80 76 74 76 76 76 77 79 80 81 80 78 78 79 82 83 81 80 83 80 80 84 81 83 85 85 92 97 103 107 111
120 118 108 109 109 105 104 104 100 92 92 91 87 89 90 87 86 84 82 83 83 83 83 83 82 82 82 82 83 81 83 84 83 84 86 89 90 86 86 88 90 89 96 101 107 110 115
126 125 119 114 116 112 110 109 103 98 94 92 92 93 92 89 88 87 86 86 89 93 88 88 88 90 90 90 89 89 89 86 87 88 92 92 96 95 93 91 93 96 102 107 111 115 119
130 130 131 122 117 116 116 114 109 103 103 100 97 93 93 92 93 90 88 91 89 86 89 93 95 97 96 93 94 96 90 91 92 94 97 99 97 100 98 97 100 99 105 112 117 121 127
134 135 137 132 126 119 117 116 116 109 105 101 92 92 92 89 90 92 88 88 91 87 93 94 98 100 98 98 99 100 95 92 96 95 98 101 103 104 105 106 105 105 112 116 122 124 131
143 139 139 141 134 129 120 116 111 110 108 101 99 97 94 93 91 93 92 92 87 85 84 86 96 99 102 104 106 103 98 98 97 96 100 103 105 108 112 111 110 113 116 120 123 124 130
151 146 143 145 144 139 131 123 120 117 110 108 109 109 104 97 98 93 95 95 90 87 84 89 91 90 92 91 95 98 98 97 99 101 105 109 111 110 113 116 116 120 121 123 126 129 134
155 154 146 146 148 147 142 137 132 124 122 119 115 116 119 109 101 97 101 103 101 102 101 103 104 103 104 104 105 106 104 105 106 109 109 111 114 116 118 120 123 123 124 125 126 131 137
Wind_Direction
249 253 254 255 256 257 248 248 249 257 258 265 268 276 275 280 274 267 259 249 219 181 169 162 150 140 132 124 117 112 108 102 88 82 81 78 81 81 62 48 44 43 40 36 30 23 15
255 251 246 255 251 249 248 247 248 255 262 269 271 279 264 259 267 251 240 211 174 164 161 155 154 146 139 133 125 120 108 100 91 80 70 61 57 37 28 25 24 27 27 21 16 12 7
251 260 250 243 250 243 248 251 247 257 272 271 253 221 234 213 190 169 160 159 161 161 156 158 156 150 148 138 139 133 112 98 78 62 63 50 40 41 27 9 13 11 11 7 2 2 358
259 258 261 258 248 252 248 250 257 270 258 209 205 197 178 167 144 138 140 144 155 163 167 162 157 148 145 156 170 153 126 343 344 350 348 11 19 14 12 9 6 0 355 353 352 346 352
269 266 259 253 249 250 254 256 267 249 208 195 184 182 173 161 148 158 158 154 158 157 167 169 165 161 155 151 144 288 295 301 305 311 308 316 329 340 343 340 342 345 343 342 342 342 338
282 274 273 258 244 242 245 248 235 220 202 191 181 182 179 177 174 157 166 170 178 169 171 183 193 213 224 229 259 278 284 285 291 296 306 306 313 323 328 330 329 332 333 334 336 336 334
276 272 266 261 242 235 229 219 215 212 201 186 189 186 189 193 190 185 184 191 210 218 226 220 238 232 255 272 287 298 290 297 304 308 310 307 308 311 315 317 321 322 324 326 331 330 331
267 270 252 238 233 221 215 204 200 193 190 192 197 202 207 211 214 217 219 230 239 243 253 259 258 257 266 271 278 283 282 287 291 297 298 304 307 306 308 310 312 316 317 319 321 323 325
260 259 250 227 221 215 207 205 201 198 194 197 201 208 213 219 227 239 248 251 252 256 264 268 270 271 271 274 279 283 284 286 292 294 295 291 300 303 305 307 310 313 315 315 317 319 321
252 254 246 235 213 207 209 211 207 204 203 210 216 220 218 222 232 243 249 257 262 264 267 269 270 267 271 272 273 275 280 282 289 295 296 297 299 302 303 305 310 312 313 313 314 314 314
247 247 246 236 222 212 212 216 215 216 215 215 224 228 224 232 250 246 250 250 259 260 267 264 265 269 272 280 284 282 282 288 291 297 296 297 297 301 301 302 306 308 309 310 312 312 314
237 240 243 240 230 220 217 219 221 222 225 227 232 234 233 240 252 264 250 254 266 277 279 277 273 276 280 284 287 291 291 293 296 297 298 302 302 301 302 303 304 306 307 307 308 307 309
232 234 236 239 236 225 224 223 226 228 230 235 237 243 242 248 257 264 263 263 271 276 280 288 287 289 287 286 291 292 288 287 289 293 296 297 298 299 301 301 302 304 305 303 307 304 307
235 234 233 234 237 234 229 228 230 233 235 238 241 242 244 250 256 261 263 266 272 278 281 279 279 282 287 288 291 291 290 291 291 294 295 295 299 301 302 302 302 302 302 303 307 306 307
237 236 235 231 232 235 235 231 233 233 237 239 240 243 246 251 254 260 265 267 273 281 280 280 280 282 284 286 288 290 292 293 295 297 297 296 299 301 302 303 305 308 307 307 306 305 307
239 238 234 235 232 232 234 237 234 233 238 240 243 245 248 252 257 262 266 270 275 277 276 278 276 275 276 281 285 287 291 294 297 296 299 299 303 304 305 306 307 306 305 305 305 307 310
241 239 237 234 236 233 234 234 236 238 241 243 245 248 252 256 258 263 267 269 270 271 272 278 274 277 281 283 286 290 292 293 296 298 299 301 303 304 305 307 306 306 306 308 308 308 309
234 240 238 238 233 237 235 236 236 238 240 244 247 250 253 256 260 263 267 269 271 274 274 274 276 279 281 283 286 289 291 293 294 296 298 299 301 305 307 305 304 306 308 307 306 307 305
230 233 237 238 239 237 236 235 235 237 240 242 246 249 254 257 260 262 264 265 268 272 272 272 274 278 283 287 288 288 292 294 295 297 299 300 303 306 306 305 306 308 305 303 303 304 307
229 229 233 231 235 235 238 236 234 236 238 240 243 247 251 253 254 257 260 263 266 266 268 270 274 279 283 286 288 288 290 294 293 295 298 299 303 305 307 305 305 305 303 301 303 306 308
224 223 227 233 234 234 233 240 239 236 239 241 245 248 252 254 257 261 262 264 266 268 270 272 274 277 280 285 288 292 292 292 292 294 296 300 303 304 305 303 301 301 301 300 301 304 306
224 224 225 231 231 235 235 233 239 245 244 246 248 249 251 254 257 258 263 267 270 271 272 276 277 278 280 284 287 293 294 296 295 296 297 298 299 298 300 298 297 297 298 300 301 304 306
221 225 224 227 229 232 233 238 244 245 249 249 249 252 253 256 259 261 262 267 272 274 274 278 279 279 280 283 289 290 292 293 293 294 294 296 296 294 297 296 296 295 294 297 298 300 303
221 222 225 227 230 230 233 237 238 242 244 250 252 253 258 259 262 264 266 272 273 275 278 279 279 280 282 284 287 287 290 288 289 291 293 294 295 295 296 297 297 296 294 295 297 299 303
223 221 224 226 228 229 232 234 233 239 244 247 252 253 255 258 260 264 268 270 273 274 275 276 278 280 280 284 286 287 288 290 288 290 291 292 293 294 294 296 299 295 294 296 298 300 303
222 222 222 225 227 229 228 233 233 238 240 245 246 250 255 254 260 263 267 269 271 276 278 276 278 279 281 282 285 287 288 286 286 287 290 293 294 297 296 298 300 296 295 297 299 303 306
222 223 222 223 226 227 226 228 233 236 239 239 241 245 251 256 255 253 258 260 267 269 273 272 274 275 278 281 284 285 283 284 285 287 289 292 294 297 298 299 300 300 299 301 303 305 311
222 223 225 225 226 226 228 227 230 234 234 237 239 244 245 251 255 256 259 262 263 266 267 270 273 275 279 280 279 282 284 286 288 290 291 293 295 296 297 298 299 300 303 304 306 305 309
224 224 226 227 226 227 229 230 228 231 234 236 238 241 244 248 252 254 257 259 263 264 267 269 272 274 276 279 281 284 285 288 288 290 293 293 294 296 297 299 299 301 303 305 306 307 310